This is the latest recevied weather packets stored in our database for station/object N5SRF. If no packets are shown the sender has not sent any weather packets the latest 10 day(s).
| Time | Temp. | Humidity | Pressure | Rain* | Wind** | Luminosity | Snow |
|---|---|---|---|---|---|---|---|
| 1777997417 | 25.56° C | 87% | 1013.5 hPa | 0 mm | - | 183 W/m² | - |
| 1777997116 | 25.56° C | 86% | 1013.6 hPa | 0 mm | - | 94 W/m² | - |
| 1777996813 | 25.56° C | 86% | 1013.4 hPa | 0 mm | - | 128 W/m² | - |
| 1777996508 | 26.11° C | 85% | 1013.4 hPa | 0 mm | - | 127 W/m² | - |
| 1777996205 | 26.11° C | 86% | 1013.4 hPa | 0 mm | - | 290 W/m² | - |
| 1777995902 | 25.56° C | 87% | 1013.4 hPa | 0 mm | - | 292 W/m² | - |
| 1777995598 | 25.56° C | 86% | 1013.5 hPa | 0 mm | - | 253 W/m² | - |
| 1777995295 | 25° C | 87% | 1013.2 hPa | 0 mm | - | 206 W/m² | - |
| 1777994992 | 25.56° C | 87% | 1013.4 hPa | 0 mm | - | 153 W/m² | - |
| 1777994689 | 25° C | 88% | 1013.5 hPa | 0 mm | - | 221 W/m² | - |
| 1777994384 | 25° C | 88% | 1013.3 hPa | 0 mm | - | 309 W/m² | - |
| 1777994079 | 25° C | 88% | 1013.4 hPa | 0 mm | - | 258 W/m² | - |
| 1777993777 | 25° C | 88% | 1013.3 hPa | 0 mm | - | 175 W/m² | - |
| 1777993468 | 25° C | 87% | 1013.2 hPa | 0 mm | - | 158 W/m² | - |
| 1777993168 | 25° C | 89% | 1013.4 hPa | 0 mm | - | 219 W/m² | - |
| 1777992866 | 24.44° C | 89% | 1013.3 hPa | 0 mm | - | 233 W/m² | - |
| 1777992564 | 24.44° C | 91% | 1013.3 hPa | 0 mm | - | 247 W/m² | - |
| 1777992262 | 23.89° C | 92% | 1013.1 hPa | 0 mm | - | 231 W/m² | - |
| 1777991959 | 23.89° C | 91% | 1013.2 hPa | 0 mm | - | 145 W/m² | - |
| 1777991657 | 23.89° C | 91% | 1013.5 hPa | 0 mm | - | 95 W/m² | - |
| 1777991353 | 23.89° C | 91% | 1013.3 hPa | 0 mm | - | 108 W/m² | - |
| 1777991051 | 23.89° C | 91% | 1013.4 hPa | 0 mm | - | 144 W/m² | - |
| 1777990748 | 23.89° C | 91% | 1013.4 hPa | 0 mm | - | 118 W/m² | - |
| 1777990444 | 23.89° C | 91% | 1013.4 hPa | 0 mm | - | 115 W/m² | - |
| 1777989832 | 23.89° C | 92% | 1013 hPa | 0 mm | - | 147 W/m² | - |
* Rain latest hour (hover to see other rain measurements)
** Current wind speed in m/s (hover to see current wind gust speed)